locationName,lineName,date,time,countIn,countOut
���X�X����,2_1_1,2022/7/1,0:00,5,2
���X�X����,2_1_1,2022/7/1,1:00,2,1
���X�X����,2_1_1,2022/7/1,2:00,2,0
���X�X����,2_1_1,2022/7/1,3:00,2,2
���X�X����,2_1_1,2022/7/1,4:00,1,1
���X�X����,2_1_1,2022/7/1,5:00,30,39
���X�X����,2_1_1,2022/7/1,6:00,53,66
���X�X����,2_1_1,2022/7/1,7:00,96,451
���X�X����,2_1_1,2022/7/1,8:00,105,376
���X�X����,2_1_1,2022/7/1,9:00,161,173
���X�X����,2_1_1,2022/7/1,10:00,121,191
���X�X����,2_1_1,2022/7/1,11:00,151,181
���X�X����,2_1_1,2022/7/1,12:00,281,156
���X�X����,2_1_1,2022/7/1,13:00,387,143
���X�X����,2_1_1,2022/7/1,14:00,171,182
���X�X����,2_1_1,2022/7/1,15:00,165,121
���X�X����,2_1_1,2022/7/1,16:00,225,174
���X�X����,2_1_1,2022/7/1,17:00,276,170
���X�X����,2_1_1,2022/7/1,18:00,184,170
���X�X����,2_1_1,2022/7/1,19:00,107,119
���X�X����,2_1_1,2022/7/1,20:00,83,65
���X�X����,2_1_1,2022/7/1,21:00,88,48
���X�X����,2_1_1,2022/7/1,22:00,45,19
���X�X����,2_1_1,2022/7/1,23:00,18,6
���X�X����,2_1_1,2022/7/2,0:00,3,1
���X�X����,2_1_1,2022/7/2,1:00,5,2
���X�X����,2_1_1,2022/7/2,2:00,2,1
���X�X����,2_1_1,2022/7/2,3:00,4,1
���X�X����,2_1_1,2022/7/2,4:00,7,5
���X�X����,2_1_1,2022/7/2,5:00,24,38
���X�X����,2_1_1,2022/7/2,6:00,47,58
���X�X����,2_1_1,2022/7/2,7:00,63,294
���X�X����,2_1_1,2022/7/2,8:00,109,253
���X�X����,2_1_1,2022/7/2,9:00,152,196
���X�X����,2_1_1,2022/7/2,10:00,151,265
���X�X����,2_1_1,2022/7/2,11:00,181,243
���X�X����,2_1_1,2022/7/2,12:00,294,335
���X�X����,2_1_1,2022/7/2,13:00,335,326
���X�X����,2_1_1,2022/7/2,14:00,411,270
���X�X����,2_1_1,2022/7/2,15:00,407,234
���X�X����,2_1_1,2022/7/2,16:00,249,235
���X�X����,2_1_1,2022/7/2,17:00,272,211
���X�X����,2_1_1,2022/7/2,18:00,177,244
���X�X����,2_1_1,2022/7/2,19:00,153,129
���X�X����,2_1_1,2022/7/2,20:00,156,68
���X�X����,2_1_1,2022/7/2,21:00,91,68
���X�X����,2_1_1,2022/7/2,22:00,30,17
���X�X����,2_1_1,2022/7/2,23:00,13,1
���X�X����,2_1_1,2022/7/3,0:00,9,1
���X�X����,2_1_1,2022/7/3,1:00,5,1
���X�X����,2_1_1,2022/7/3,2:00,3,2
���X�X����,2_1_1,2022/7/3,3:00,2,0
���X�X����,2_1_1,2022/7/3,4:00,3,3
���X�X����,2_1_1,2022/7/3,5:00,30,19
���X�X����,2_1_1,2022/7/3,6:00,29,30
���X�X����,2_1_1,2022/7/3,7:00,62,106
���X�X����,2_1_1,2022/7/3,8:00,80,142
���X�X����,2_1_1,2022/7/3,9:00,83,165
���X�X����,2_1_1,2022/7/3,10:00,164,303
���X�X����,2_1_1,2022/7/3,11:00,210,319
���X�X����,2_1_1,2022/7/3,12:00,356,394
���X�X����,2_1_1,2022/7/3,13:00,393,375
���X�X����,2_1_1,2022/7/3,14:00,406,332
���X�X����,2_1_1,2022/7/3,15:00,302,207
���X�X����,2_1_1,2022/7/3,16:00,211,207
���X�X����,2_1_1,2022/7/3,17:00,208,136
���X�X����,2_1_1,2022/7/3,18:00,131,115
���X�X����,2_1_1,2022/7/3,19:00,80,73
���X�X����,2_1_1,2022/7/3,20:00,71,54
���X�X����,2_1_1,2022/7/3,21:00,44,32
���X�X����,2_1_1,2022/7/3,22:00,18,6
���X�X����,2_1_1,2022/7/3,23:00,9,1
���X�X����,2_1_1,2022/7/4,0:00,1,2
���X�X����,2_1_1,2022/7/4,1:00,3,1
���X�X����,2_1_1,2022/7/4,2:00,4,1
���X�X����,2_1_1,2022/7/4,3:00,2,2
���X�X����,2_1_1,2022/7/4,4:00,2,5
���X�X����,2_1_1,2022/7/4,5:00,28,27
���X�X����,2_1_1,2022/7/4,6:00,44,42
���X�X����,2_1_1,2022/7/4,7:00,83,211
���X�X����,2_1_1,2022/7/4,8:00,85,256
���X�X����,2_1_1,2022/7/4,9:00,94,124
���X�X����,2_1_1,2022/7/4,10:00,120,131
���X�X����,2_1_1,2022/7/4,11:00,118,143
���X�X����,2_1_1,2022/7/4,12:00,162,184
���X�X����,2_1_1,2022/7/4,13:00,142,125
���X�X����,2_1_1,2022/7/4,14:00,122,109
���X�X����,2_1_1,2022/7/4,15:00,144,110
���X�X����,2_1_1,2022/7/4,16:00,184,116
���X�X����,2_1_1,2022/7/4,17:00,193,121
���X�X����,2_1_1,2022/7/4,18:00,197,101
���X�X����,2_1_1,2022/7/4,19:00,108,78
���X�X����,2_1_1,2022/7/4,20:00,41,61
���X�X����,2_1_1,2022/7/4,21:00,57,36
���X�X����,2_1_1,2022/7/4,22:00,17,11
���X�X����,2_1_1,2022/7/4,23:00,9,2
���X�X����,2_1_1,2022/7/5,0:00,4,0
���X�X����,2_1_1,2022/7/5,1:00,6,1
���X�X����,2_1_1,2022/7/5,2:00,1,3
���X�X����,2_1_1,2022/7/5,3:00,1,4
���X�X����,2_1_1,2022/7/5,4:00,2,3
���X�X����,2_1_1,2022/7/5,5:00,23,25
���X�X����,2_1_1,2022/7/5,6:00,47,43
���X�X����,2_1_1,2022/7/5,7:00,78,361
���X�X����,2_1_1,2022/7/5,8:00,94,315
���X�X����,2_1_1,2022/7/5,9:00,128,167
���X�X����,2_1_1,2022/7/5,10:00,125,149
���X�X����,2_1_1,2022/7/5,11:00,141,169
���X�X����,2_1_1,2022/7/5,12:00,123,167
���X�X����,2_1_1,2022/7/5,13:00,144,144
���X�X����,2_1_1,2022/7/5,14:00,130,124
���X�X����,2_1_1,2022/7/5,15:00,165,110
���X�X����,2_1_1,2022/7/5,16:00,216,103
���X�X����,2_1_1,2022/7/5,17:00,227,104
���X�X����,2_1_1,2022/7/5,18:00,284,109
���X�X����,2_1_1,2022/7/5,19:00,111,101
���X�X����,2_1_1,2022/7/5,20:00,81,45
���X�X����,2_1_1,2022/7/5,21:00,68,45
���X�X����,2_1_1,2022/7/5,22:00,30,5
���X�X����,2_1_1,2022/7/5,23:00,3,2
���X�X����,2_1_1,2022/7/6,0:00,3,2
���X�X����,2_1_1,2022/7/6,1:00,2,1
���X�X����,2_1_1,2022/7/6,2:00,1,0
���X�X����,2_1_1,2022/7/6,3:00,3,1
���X�X����,2_1_1,2022/7/6,4:00,4,6
���X�X����,2_1_1,2022/7/6,5:00,26,30
���X�X����,2_1_1,2022/7/6,6:00,39,55
���X�X����,2_1_1,2022/7/6,7:00,100,424
���X�X����,2_1_1,2022/7/6,8:00,110,359
���X�X����,2_1_1,2022/7/6,9:00,112,140
���X�X����,2_1_1,2022/7/6,10:00,133,168
���X�X����,2_1_1,2022/7/6,11:00,127,151
���X�X����,2_1_1,2022/7/6,12:00,156,169
���X�X����,2_1_1,2022/7/6,13:00,168,162
���X�X����,2_1_1,2022/7/6,14:00,162,167
���X�X����,2_1_1,2022/7/6,15:00,208,110
���X�X����,2_1_1,2022/7/6,16:00,328,114
���X�X����,2_1_1,2022/7/6,17:00,273,128
���X�X����,2_1_1,2022/7/6,18:00,129,107
���X�X����,2_1_1,2022/7/6,19:00,73,61
���X�X����,2_1_1,2022/7/6,20:00,73,60
���X�X����,2_1_1,2022/7/6,21:00,87,30
���X�X����,2_1_1,2022/7/6,22:00,16,20
���X�X����,2_1_1,2022/7/6,23:00,3,1
���X�X����,2_1_1,2022/7/7,0:00,5,1
���X�X����,2_1_1,2022/7/7,1:00,0,2
���X�X����,2_1_1,2022/7/7,2:00,1,1
���X�X����,2_1_1,2022/7/7,3:00,2,3
���X�X����,2_1_1,2022/7/7,4:00,2,0
���X�X����,2_1_1,2022/7/7,5:00,23,33
���X�X����,2_1_1,2022/7/7,6:00,46,44
���X�X����,2_1_1,2022/7/7,7:00,99,343
���X�X����,2_1_1,2022/7/7,8:00,96,379
���X�X����,2_1_1,2022/7/7,9:00,134,149
���X�X����,2_1_1,2022/7/7,10:00,136,152
���X�X����,2_1_1,2022/7/7,11:00,139,139
���X�X����,2_1_1,2022/7/7,12:00,163,148
���X�X����,2_1_1,2022/7/7,13:00,157,128
���X�X����,2_1_1,2022/7/7,14:00,155,147
���X�X����,2_1_1,2022/7/7,15:00,128,129
���X�X����,2_1_1,2022/7/7,16:00,215,115
���X�X����,2_1_1,2022/7/7,17:00,290,137
���X�X����,2_1_1,2022/7/7,18:00,337,119
���X�X����,2_1_1,2022/7/7,19:00,105,82
���X�X����,2_1_1,2022/7/7,20:00,94,57
���X�X����,2_1_1,2022/7/7,21:00,88,38
���X�X����,2_1_1,2022/7/7,22:00,25,8
���X�X����,2_1_1,2022/7/7,23:00,3,2
���X�X����,2_1_1,2022/7/8,0:00,1,3
���X�X����,2_1_1,2022/7/8,1:00,4,1
���X�X����,2_1_1,2022/7/8,2:00,1,1
���X�X����,2_1_1,2022/7/8,3:00,4,2
���X�X����,2_1_1,2022/7/8,4:00,4,1
���X�X����,2_1_1,2022/7/8,5:00,25,32
���X�X����,2_1_1,2022/7/8,6:00,55,48
���X�X����,2_1_1,2022/7/8,7:00,73,226
���X�X����,2_1_1,2022/7/8,8:00,75,214
���X�X����,2_1_1,2022/7/8,9:00,116,187
���X�X����,2_1_1,2022/7/8,10:00,113,180
���X�X����,2_1_1,2022/7/8,11:00,181,182
���X�X����,2_1_1,2022/7/8,12:00,180,169
���X�X����,2_1_1,2022/7/8,13:00,164,172
���X�X����,2_1_1,2022/7/8,14:00,170,117
���X�X����,2_1_1,2022/7/8,15:00,174,114
���X�X����,2_1_1,2022/7/8,16:00,210,165
���X�X����,2_1_1,2022/7/8,17:00,233,126
���X�X����,2_1_1,2022/7/8,18:00,225,157
���X�X����,2_1_1,2022/7/8,19:00,82,92
���X�X����,2_1_1,2022/7/8,20:00,69,29
���X�X����,2_1_1,2022/7/8,21:00,61,32
���X�X����,2_1_1,2022/7/8,22:00,34,16
���X�X����,2_1_1,2022/7/8,23:00,3,0
���X�X����,2_1_1,2022/7/9,0:00,7,0
���X�X����,2_1_1,2022/7/9,1:00,8,3
���X�X����,2_1_1,2022/7/9,2:00,4,0
���X�X����,2_1_1,2022/7/9,3:00,4,0
���X�X����,2_1_1,2022/7/9,4:00,2,2
���X�X����,2_1_1,2022/7/9,5:00,19,19
���X�X����,2_1_1,2022/7/9,6:00,29,36
���X�X����,2_1_1,2022/7/9,7:00,65,77
���X�X����,2_1_1,2022/7/9,8:00,66,113
���X�X����,2_1_1,2022/7/9,9:00,102,156
���X�X����,2_1_1,2022/7/9,10:00,149,274
���X�X����,2_1_1,2022/7/9,11:00,207,274
���X�X����,2_1_1,2022/7/9,12:00,336,388
���X�X����,2_1_1,2022/7/9,13:00,386,340
���X�X����,2_1_1,2022/7/9,14:00,372,333
���X�X����,2_1_1,2022/7/9,15:00,321,255
���X�X����,2_1_1,2022/7/9,16:00,310,241
���X�X����,2_1_1,2022/7/9,17:00,284,237
���X�X����,2_1_1,2022/7/9,18:00,191,217
���X�X����,2_1_1,2022/7/9,19:00,184,159
���X�X����,2_1_1,2022/7/9,20:00,141,104
���X�X����,2_1_1,2022/7/9,21:00,126,54
���X�X����,2_1_1,2022/7/9,22:00,27,9
���X�X����,2_1_1,2022/7/9,23:00,16,3
���X�X����,2_1_1,2022/7/10,0:00,3,0
���X�X����,2_1_1,2022/7/10,1:00,2,0
���X�X����,2_1_1,2022/7/10,2:00,7,0
���X�X����,2_1_1,2022/7/10,3:00,3,0
���X�X����,2_1_1,2022/7/10,4:00,2,1
���X�X����,2_1_1,2022/7/10,5:00,20,30
���X�X����,2_1_1,2022/7/10,6:00,36,32
���X�X����,2_1_1,2022/7/10,7:00,64,89
���X�X����,2_1_1,2022/7/10,8:00,88,103
���X�X����,2_1_1,2022/7/10,9:00,129,177
���X�X����,2_1_1,2022/7/10,10:00,191,304
���X�X����,2_1_1,2022/7/10,11:00,253,401
���X�X����,2_1_1,2022/7/10,12:00,348,421
���X�X����,2_1_1,2022/7/10,13:00,491,438
���X�X����,2_1_1,2022/7/10,14:00,482,345
���X�X����,2_1_1,2022/7/10,15:00,397,275
���X�X����,2_1_1,2022/7/10,16:00,298,178
���X�X����,2_1_1,2022/7/10,17:00,241,134
���X�X����,2_1_1,2022/7/10,18:00,138,142
���X�X����,2_1_1,2022/7/10,19:00,79,78
���X�X����,2_1_1,2022/7/10,20:00,51,48
���X�X����,2_1_1,2022/7/10,21:00,57,33
���X�X����,2_1_1,2022/7/10,22:00,11,6
���X�X����,2_1_1,2022/7/10,23:00,3,0
���X�X����,2_1_1,2022/7/11,0:00,0,0
���X�X����,2_1_1,2022/7/11,1:00,2,1
���X�X����,2_1_1,2022/7/11,2:00,2,0
���X�X����,2_1_1,2022/7/11,3:00,0,0
���X�X����,2_1_1,2022/7/11,4:00,4,1
���X�X����,2_1_1,2022/7/11,5:00,16,26
���X�X����,2_1_1,2022/7/11,6:00,44,52
���X�X����,2_1_1,2022/7/11,7:00,83,381
���X�X����,2_1_1,2022/7/11,8:00,100,321
���X�X����,2_1_1,2022/7/11,9:00,134,157
���X�X����,2_1_1,2022/7/11,10:00,149,157
���X�X����,2_1_1,2022/7/11,11:00,194,216
���X�X����,2_1_1,2022/7/11,12:00,208,190
���X�X����,2_1_1,2022/7/11,13:00,152,145
���X�X����,2_1_1,2022/7/11,14:00,178,160
���X�X����,2_1_1,2022/7/11,15:00,260,126
���X�X����,2_1_1,2022/7/11,16:00,285,107
���X�X����,2_1_1,2022/7/11,17:00,280,114
���X�X����,2_1_1,2022/7/11,18:00,291,90
���X�X����,2_1_1,2022/7/11,19:00,76,82
���X�X����,2_1_1,2022/7/11,20:00,57,50
���X�X����,2_1_1,2022/7/11,21:00,61,40
���X�X����,2_1_1,2022/7/11,22:00,13,8
���X�X����,2_1_1,2022/7/11,23:00,2,0
���X�X����,2_1_1,2022/7/12,0:00,1,0
���X�X����,2_1_1,2022/7/12,1:00,0,0
���X�X����,2_1_1,2022/7/12,2:00,1,0
���X�X����,2_1_1,2022/7/12,3:00,2,1
���X�X����,2_1_1,2022/7/12,4:00,0,0
���X�X����,2_1_1,2022/7/12,5:00,19,24
���X�X����,2_1_1,2022/7/12,6:00,50,41
���X�X����,2_1_1,2022/7/12,7:00,74,314
���X�X����,2_1_1,2022/7/12,8:00,97,295
���X�X����,2_1_1,2022/7/12,9:00,104,101
���X�X����,2_1_1,2022/7/12,10:00,125,140
���X�X����,2_1_1,2022/7/12,11:00,153,182
���X�X����,2_1_1,2022/7/12,12:00,146,180
���X�X����,2_1_1,2022/7/12,13:00,163,132
���X�X����,2_1_1,2022/7/12,14:00,172,91
���X�X����,2_1_1,2022/7/12,15:00,157,128
���X�X����,2_1_1,2022/7/12,16:00,217,98
���X�X����,2_1_1,2022/7/12,17:00,289,107
���X�X����,2_1_1,2022/7/12,18:00,307,97
���X�X����,2_1_1,2022/7/12,19:00,122,110
���X�X����,2_1_1,2022/7/12,20:00,116,70
���X�X����,2_1_1,2022/7/12,21:00,56,41
���X�X����,2_1_1,2022/7/12,22:00,14,13
���X�X����,2_1_1,2022/7/12,23:00,3,0
���X�X����,2_1_1,2022/7/13,0:00,1,0
���X�X����,2_1_1,2022/7/13,1:00,2,0
���X�X����,2_1_1,2022/7/13,2:00,3,0
���X�X����,2_1_1,2022/7/13,3:00,2,0
���X�X����,2_1_1,2022/7/13,4:00,4,0
���X�X����,2_1_1,2022/7/13,5:00,22,27
���X�X����,2_1_1,2022/7/13,6:00,45,45
���X�X����,2_1_1,2022/7/13,7:00,85,387
���X�X����,2_1_1,2022/7/13,8:00,95,315
���X�X����,2_1_1,2022/7/13,9:00,131,150
���X�X����,2_1_1,2022/7/13,10:00,160,192
���X�X����,2_1_1,2022/7/13,11:00,142,177
���X�X����,2_1_1,2022/7/13,12:00,177,208
���X�X����,2_1_1,2022/7/13,13:00,185,151
���X�X����,2_1_1,2022/7/13,14:00,193,171
���X�X����,2_1_1,2022/7/13,15:00,228,129
���X�X����,2_1_1,2022/7/13,16:00,401,129
���X�X����,2_1_1,2022/7/13,17:00,321,113
���X�X����,2_1_1,2022/7/13,18:00,142,132
���X�X����,2_1_1,2022/7/13,19:00,98,90
���X�X����,2_1_1,2022/7/13,20:00,94,53
���X�X����,2_1_1,2022/7/13,21:00,100,36
���X�X����,2_1_1,2022/7/13,22:00,18,14
���X�X����,2_1_1,2022/7/13,23:00,2,1
���X�X����,2_1_1,2022/7/14,0:00,6,1
���X�X����,2_1_1,2022/7/14,1:00,1,0
���X�X����,2_1_1,2022/7/14,2:00,2,0
���X�X����,2_1_1,2022/7/14,3:00,1,1
���X�X����,2_1_1,2022/7/14,4:00,2,1
���X�X����,2_1_1,2022/7/14,5:00,11,6
���X�X����,2_1_1,2022/7/14,6:00,40,43
���X�X����,2_1_1,2022/7/14,7:00,82,144
���X�X����,2_1_1,2022/7/14,8:00,56,183
���X�X����,2_1_1,2022/7/14,9:00,79,106
���X�X����,2_1_1,2022/7/14,10:00,77,137
���X�X����,2_1_1,2022/7/14,11:00,102,155
���X�X����,2_1_1,2022/7/14,12:00,143,128
���X�X����,2_1_1,2022/7/14,13:00,97,105
���X�X����,2_1_1,2022/7/14,14:00,134,94
���X�X����,2_1_1,2022/7/14,15:00,149,112
���X�X����,2_1_1,2022/7/14,16:00,140,108
���X�X����,2_1_1,2022/7/14,17:00,212,119
���X�X����,2_1_1,2022/7/14,18:00,196,93
���X�X����,2_1_1,2022/7/14,19:00,74,49
���X�X����,2_1_1,2022/7/14,20:00,55,39
���X�X����,2_1_1,2022/7/14,21:00,75,32
���X�X����,2_1_1,2022/7/14,22:00,21,5
���X�X����,2_1_1,2022/7/14,23:00,3,1
���X�X����,2_1_1,2022/7/15,0:00,2,0
���X�X����,2_1_1,2022/7/15,1:00,1,0
���X�X����,2_1_1,2022/7/15,2:00,1,0
���X�X����,2_1_1,2022/7/15,3:00,1,0
���X�X����,2_1_1,2022/7/15,4:00,0,0
���X�X����,2_1_1,2022/7/15,5:00,24,19
���X�X����,2_1_1,2022/7/15,6:00,39,29
���X�X����,2_1_1,2022/7/15,7:00,86,297
���X�X����,2_1_1,2022/7/15,8:00,73,288
���X�X����,2_1_1,2022/7/15,9:00,124,161
���X�X����,2_1_1,2022/7/15,10:00,164,181
���X�X����,2_1_1,2022/7/15,11:00,154,193
���X�X����,2_1_1,2022/7/15,12:00,200,165
���X�X����,2_1_1,2022/7/15,13:00,177,137
���X�X����,2_1_1,2022/7/15,14:00,194,138
���X�X����,2_1_1,2022/7/15,15:00,224,117
���X�X����,2_1_1,2022/7/15,16:00,296,142
���X�X����,2_1_1,2022/7/15,17:00,318,176
���X�X����,2_1_1,2022/7/15,18:00,335,114
���X�X����,2_1_1,2022/7/15,19:00,109,96
���X�X����,2_1_1,2022/7/15,20:00,103,69
���X�X����,2_1_1,2022/7/15,21:00,96,51
���X�X����,2_1_1,2022/7/15,22:00,26,10
���X�X����,2_1_1,2022/7/15,23:00,10,4
���X�X����,2_1_1,2022/7/16,0:00,4,0
���X�X����,2_1_1,2022/7/16,1:00,2,2
���X�X����,2_1_1,2022/7/16,2:00,7,0
���X�X����,2_1_1,2022/7/16,3:00,2,0
���X�X����,2_1_1,2022/7/16,4:00,3,1
���X�X����,2_1_1,2022/7/16,5:00,20,16
���X�X����,2_1_1,2022/7/16,6:00,36,30
���X�X����,2_1_1,2022/7/16,7:00,46,98
���X�X����,2_1_1,2022/7/16,8:00,90,107
���X�X����,2_1_1,2022/7/16,9:00,119,197
���X�X����,2_1_1,2022/7/16,10:00,186,300
���X�X����,2_1_1,2022/7/16,11:00,242,372
���X�X����,2_1_1,2022/7/16,12:00,257,426
���X�X����,2_1_1,2022/7/16,13:00,345,313
���X�X����,2_1_1,2022/7/16,14:00,353,353
���X�X����,2_1_1,2022/7/16,15:00,409,256
���X�X����,2_1_1,2022/7/16,16:00,299,208
���X�X����,2_1_1,2022/7/16,17:00,290,240
���X�X����,2_1_1,2022/7/16,18:00,243,219
���X�X����,2_1_1,2022/7/16,19:00,185,162
���X�X����,2_1_1,2022/7/16,20:00,151,92
���X�X����,2_1_1,2022/7/16,21:00,99,47
���X�X����,2_1_1,2022/7/16,22:00,18,17
���X�X����,2_1_1,2022/7/16,23:00,7,1
���X�X����,2_1_1,2022/7/17,0:00,5,0
���X�X����,2_1_1,2022/7/17,1:00,1,0
���X�X����,2_1_1,2022/7/17,2:00,6,0
���X�X����,2_1_1,2022/7/17,3:00,0,1
���X�X����,2_1_1,2022/7/17,4:00,4,1
���X�X����,2_1_1,2022/7/17,5:00,20,17
���X�X����,2_1_1,2022/7/17,6:00,49,43
���X�X����,2_1_1,2022/7/17,7:00,69,88
���X�X����,2_1_1,2022/7/17,8:00,88,117
���X�X����,2_1_1,2022/7/17,9:00,110,207
���X�X����,2_1_1,2022/7/17,10:00,200,441
���X�X����,2_1_1,2022/7/17,11:00,308,483
���X�X����,2_1_1,2022/7/17,12:00,489,627
���X�X����,2_1_1,2022/7/17,13:00,580,502
���X�X����,2_1_1,2022/7/17,14:00,644,534
���X�X����,2_1_1,2022/7/17,15:00,608,434
���X�X����,2_1_1,2022/7/17,16:00,551,365
���X�X����,2_1_1,2022/7/17,17:00,413,248
���X�X����,2_1_1,2022/7/17,18:00,305,217
���X�X����,2_1_1,2022/7/17,19:00,165,157
���X�X����,2_1_1,2022/7/17,20:00,144,78
���X�X����,2_1_1,2022/7/17,21:00,91,37
���X�X����,2_1_1,2022/7/17,22:00,18,8
���X�X����,2_1_1,2022/7/17,23:00,5,1
���X�X����,2_1_1,2022/7/18,0:00,2,0
���X�X����,2_1_1,2022/7/18,1:00,0,1
���X�X����,2_1_1,2022/7/18,2:00,6,0
���X�X����,2_1_1,2022/7/18,3:00,0,0
���X�X����,2_1_1,2022/7/18,4:00,2,0
���X�X����,2_1_1,2022/7/18,5:00,20,20
���X�X����,2_1_1,2022/7/18,6:00,40,23
���X�X����,2_1_1,2022/7/18,7:00,51,75
���X�X����,2_1_1,2022/7/18,8:00,89,104
���X�X����,2_1_1,2022/7/18,9:00,135,197
���X�X����,2_1_1,2022/7/18,10:00,217,370
���X�X����,2_1_1,2022/7/18,11:00,337,421
���X�X����,2_1_1,2022/7/18,12:00,420,425
���X�X����,2_1_1,2022/7/18,13:00,429,360
���X�X����,2_1_1,2022/7/18,14:00,462,349
���X�X����,2_1_1,2022/7/18,15:00,345,219
���X�X����,2_1_1,2022/7/18,16:00,261,203
���X�X����,2_1_1,2022/7/18,17:00,202,112
���X�X����,2_1_1,2022/7/18,18:00,139,91
���X�X����,2_1_1,2022/7/18,19:00,60,38
���X�X����,2_1_1,2022/7/18,20:00,62,46
���X�X����,2_1_1,2022/7/18,21:00,32,32
���X�X����,2_1_1,2022/7/18,22:00,15,5
���X�X����,2_1_1,2022/7/18,23:00,0,0
���X�X����,2_1_1,2022/7/19,0:00,1,0
���X�X����,2_1_1,2022/7/19,1:00,0,0
���X�X����,2_1_1,2022/7/19,2:00,3,0
���X�X����,2_1_1,2022/7/19,3:00,1,2
���X�X����,2_1_1,2022/7/19,4:00,1,0
���X�X����,2_1_1,2022/7/19,5:00,8,4
���X�X����,2_1_1,2022/7/19,6:00,49,23
���X�X����,2_1_1,2022/7/19,7:00,70,157
���X�X����,2_1_1,2022/7/19,8:00,64,183
���X�X����,2_1_1,2022/7/19,9:00,80,86
���X�X����,2_1_1,2022/7/19,10:00,95,100
���X�X����,2_1_1,2022/7/19,11:00,94,88
���X�X����,2_1_1,2022/7/19,12:00,121,112
���X�X����,2_1_1,2022/7/19,13:00,126,73
���X�X����,2_1_1,2022/7/19,14:00,104,99
���X�X����,2_1_1,2022/7/19,15:00,112,69
���X�X����,2_1_1,2022/7/19,16:00,182,88
���X�X����,2_1_1,2022/7/19,17:00,271,82
���X�X����,2_1_1,2022/7/19,18:00,197,97
���X�X����,2_1_1,2022/7/19,19:00,112,67
���X�X����,2_1_1,2022/7/19,20:00,76,45
���X�X����,2_1_1,2022/7/19,21:00,50,28
���X�X����,2_1_1,2022/7/19,22:00,8,3
���X�X����,2_1_1,2022/7/19,23:00,0,0
���X�X����,2_1_1,2022/7/20,0:00,1,1
���X�X����,2_1_1,2022/7/20,1:00,0,0
���X�X����,2_1_1,2022/7/20,2:00,2,0
���X�X����,2_1_1,2022/7/20,3:00,0,0
���X�X����,2_1_1,2022/7/20,4:00,0,0
���X�X����,2_1_1,2022/7/20,5:00,23,19
���X�X����,2_1_1,2022/7/20,6:00,53,40
���X�X����,2_1_1,2022/7/20,7:00,94,324
���X�X����,2_1_1,2022/7/20,8:00,113,276
���X�X����,2_1_1,2022/7/20,9:00,134,143
���X�X����,2_1_1,2022/7/20,10:00,178,151
���X�X����,2_1_1,2022/7/20,11:00,149,180
���X�X����,2_1_1,2022/7/20,12:00,369,156
���X�X����,2_1_1,2022/7/20,13:00,268,153
���X�X����,2_1_1,2022/7/20,14:00,184,127
���X�X����,2_1_1,2022/7/20,15:00,178,102
���X�X����,2_1_1,2022/7/20,16:00,208,119
���X�X����,2_1_1,2022/7/20,17:00,261,108
���X�X����,2_1_1,2022/7/20,18:00,157,98
���X�X����,2_1_1,2022/7/20,19:00,90,87
���X�X����,2_1_1,2022/7/20,20:00,82,48
���X�X����,2_1_1,2022/7/20,21:00,84,41
���X�X����,2_1_1,2022/7/20,22:00,13,2
���X�X����,2_1_1,2022/7/20,23:00,5,1
���X�X����,2_1_1,2022/7/21,0:00,2,0
���X�X����,2_1_1,2022/7/21,1:00,1,0
���X�X����,2_1_1,2022/7/21,2:00,2,0
���X�X����,2_1_1,2022/7/21,3:00,1,1
���X�X����,2_1_1,2022/7/21,4:00,1,0
���X�X����,2_1_1,2022/7/21,5:00,17,16
���X�X����,2_1_1,2022/7/21,6:00,43,30
���X�X����,2_1_1,2022/7/21,7:00,70,170
���X�X����,2_1_1,2022/7/21,8:00,101,233
���X�X����,2_1_1,2022/7/21,9:00,107,160
���X�X����,2_1_1,2022/7/21,10:00,144,130
���X�X����,2_1_1,2022/7/21,11:00,165,145
���X�X����,2_1_1,2022/7/21,12:00,226,170
���X�X����,2_1_1,2022/7/21,13:00,166,151
���X�X����,2_1_1,2022/7/21,14:00,151,134
���X�X����,2_1_1,2022/7/21,15:00,170,107
���X�X����,2_1_1,2022/7/21,16:00,198,110
���X�X����,2_1_1,2022/7/21,17:00,210,96
���X�X����,2_1_1,2022/7/21,18:00,143,111
���X�X����,2_1_1,2022/7/21,19:00,104,71
���X�X����,2_1_1,2022/7/21,20:00,93,35
���X�X����,2_1_1,2022/7/21,21:00,79,18
���X�X����,2_1_1,2022/7/21,22:00,15,6
���X�X����,2_1_1,2022/7/21,23:00,2,1
���X�X����,2_1_1,2022/7/22,0:00,2,0
���X�X����,2_1_1,2022/7/22,1:00,2,0
���X�X����,2_1_1,2022/7/22,2:00,2,0
���X�X����,2_1_1,2022/7/22,3:00,1,0
���X�X����,2_1_1,2022/7/22,4:00,1,0
���X�X����,2_1_1,2022/7/22,5:00,22,28
���X�X����,2_1_1,2022/7/22,6:00,39,21
���X�X����,2_1_1,2022/7/22,7:00,81,157
���X�X����,2_1_1,2022/7/22,8:00,89,186
���X�X����,2_1_1,2022/7/22,9:00,139,190
���X�X����,2_1_1,2022/7/22,10:00,172,199
���X�X����,2_1_1,2022/7/22,11:00,190,204
���X�X����,2_1_1,2022/7/22,12:00,190,214
���X�X����,2_1_1,2022/7/22,13:00,171,177
���X�X����,2_1_1,2022/7/22,14:00,233,125
���X�X����,2_1_1,2022/7/22,15:00,225,99
���X�X����,2_1_1,2022/7/22,16:00,201,150
���X�X����,2_1_1,2022/7/22,17:00,242,118
���X�X����,2_1_1,2022/7/22,18:00,160,157
���X�X����,2_1_1,2022/7/22,19:00,111,74
���X�X����,2_1_1,2022/7/22,20:00,92,55
���X�X����,2_1_1,2022/7/22,21:00,87,35
���X�X����,2_1_1,2022/7/22,22:00,31,7
���X�X����,2_1_1,2022/7/22,23:00,1,0
���X�X����,2_1_1,2022/7/23,0:00,3,0
���X�X����,2_1_1,2022/7/23,1:00,2,0
���X�X����,2_1_1,2022/7/23,2:00,3,1
���X�X����,2_1_1,2022/7/23,3:00,0,0
���X�X����,2_1_1,2022/7/23,4:00,2,0
���X�X����,2_1_1,2022/7/23,5:00,19,23
���X�X����,2_1_1,2022/7/23,6:00,39,28
���X�X����,2_1_1,2022/7/23,7:00,62,70
���X�X����,2_1_1,2022/7/23,8:00,95,96
���X�X����,2_1_1,2022/7/23,9:00,106,155
���X�X����,2_1_1,2022/7/23,10:00,164,219
���X�X����,2_1_1,2022/7/23,11:00,182,269
���X�X����,2_1_1,2022/7/23,12:00,326,325
���X�X����,2_1_1,2022/7/23,13:00,379,331
���X�X����,2_1_1,2022/7/23,14:00,373,291
���X�X����,2_1_1,2022/7/23,15:00,356,200
���X�X����,2_1_1,2022/7/23,16:00,343,191
���X�X����,2_1_1,2022/7/23,17:00,273,189
���X�X����,2_1_1,2022/7/23,18:00,202,189
���X�X����,2_1_1,2022/7/23,19:00,145,138
���X�X����,2_1_1,2022/7/23,20:00,133,96
���X�X����,2_1_1,2022/7/23,21:00,106,55
���X�X����,2_1_1,2022/7/23,22:00,23,12
���X�X����,2_1_1,2022/7/23,23:00,6,0
���X�X����,2_1_1,2022/7/24,0:00,1,0
���X�X����,2_1_1,2022/7/24,1:00,1,0
���X�X����,2_1_1,2022/7/24,2:00,2,1
���X�X����,2_1_1,2022/7/24,3:00,2,0
���X�X����,2_1_1,2022/7/24,4:00,0,0
���X�X����,2_1_1,2022/7/24,5:00,23,21
���X�X����,2_1_1,2022/7/24,6:00,37,30
���X�X����,2_1_1,2022/7/24,7:00,55,50
���X�X����,2_1_1,2022/7/24,8:00,89,83
���X�X����,2_1_1,2022/7/24,9:00,100,137
���X�X����,2_1_1,2022/7/24,10:00,146,229
���X�X����,2_1_1,2022/7/24,11:00,204,337
���X�X����,2_1_1,2022/7/24,12:00,322,292
���X�X����,2_1_1,2022/7/24,13:00,372,317
���X�X����,2_1_1,2022/7/24,14:00,360,319
���X�X����,2_1_1,2022/7/24,15:00,339,179
���X�X����,2_1_1,2022/7/24,16:00,298,156
���X�X����,2_1_1,2022/7/24,17:00,225,125
���X�X����,2_1_1,2022/7/24,18:00,150,121
���X�X����,2_1_1,2022/7/24,19:00,88,55
���X�X����,2_1_1,2022/7/24,20:00,67,46
���X�X����,2_1_1,2022/7/24,21:00,38,16
���X�X����,2_1_1,2022/7/24,22:00,9,3
���X�X����,2_1_1,2022/7/24,23:00,6,0
���X�X����,2_1_1,2022/7/25,0:00,1,0
���X�X����,2_1_1,2022/7/25,1:00,2,0
���X�X����,2_1_1,2022/7/25,2:00,2,0
���X�X����,2_1_1,2022/7/25,3:00,0,0
���X�X����,2_1_1,2022/7/25,4:00,0,1
���X�X����,2_1_1,2022/7/25,5:00,14,21
���X�X����,2_1_1,2022/7/25,6:00,37,24
���X�X����,2_1_1,2022/7/25,7:00,78,203
���X�X����,2_1_1,2022/7/25,8:00,82,177
���X�X����,2_1_1,2022/7/25,9:00,119,119
���X�X����,2_1_1,2022/7/25,10:00,180,144
���X�X����,2_1_1,2022/7/25,11:00,187,198
���X�X����,2_1_1,2022/7/25,12:00,206,211
���X�X����,2_1_1,2022/7/25,13:00,203,171
���X�X����,2_1_1,2022/7/25,14:00,221,157
���X�X����,2_1_1,2022/7/25,15:00,211,102
���X�X����,2_1_1,2022/7/25,16:00,188,98
���X�X����,2_1_1,2022/7/25,17:00,283,82
���X�X����,2_1_1,2022/7/25,18:00,170,147
���X�X����,2_1_1,2022/7/25,19:00,94,80
���X�X����,2_1_1,2022/7/25,20:00,104,54
���X�X����,2_1_1,2022/7/25,21:00,62,24
���X�X����,2_1_1,2022/7/25,22:00,24,7
���X�X����,2_1_1,2022/7/25,23:00,1,0
���X�X����,2_1_1,2022/7/26,0:00,1,0
���X�X����,2_1_1,2022/7/26,1:00,1,0
���X�X����,2_1_1,2022/7/26,2:00,1,0
���X�X����,2_1_1,2022/7/26,3:00,0,0